| time (UTC) | temp F | wind direction | speed MPH | gust MPH | rain 1hr in | rain 24hr in | rain mn in | humidity % | barometer mb |
| 20260901084517 | 74 | 0.0 | 0.0 | 0.00 | 0.00 | 0.00 | 96 | 1012.0 | |
| 20260901083016 | 74 | 0.0 | 0.0 | 0.00 | 0.00 | 0.00 | 94 | 1011.9 | |
| 20260901081516 | 75 | 0.0 | 0.0 | 0.00 | 0.00 | 0.00 | 93 | 1012.0 | |
| 20260901080018 | 76 | 0.0 | 0.0 | 0.00 | 0.00 | 0.00 | 91 | 1012.1 | |
| 20260901074518 | 76 | 0.0 | 0.0 | 0.00 | 0.00 | 0.00 | 90 | 1011.7 | |
| 20260901073016 | 77 | 0.0 | 0.0 | 0.00 | 0.00 | 0.00 | 88 | 1011.7 | |
| 20260901071516 | 78 | 0.0 | 0.0 | 0.00 | 0.00 | 0.00 | 87 | 1011.6 | |
| 20260901070058 | 78 | 0.0 | 2.0 | 0.00 | 0.00 | 0.00 | 87 | 1011.4 | |
| 20260901064517 | 78 | 0.0 | 2.0 | 0.00 | 0.00 | 0.00 | 87 | 1011.4 | |
| 20260901063016 | 78 | 0.0 | 1.0 | 0.00 | 0.00 | 0.00 | 87 | 1011.4 | |
| 20260901061516 | 78 | 0.0 | 2.0 | 0.00 | 0.00 | 0.00 | 86 | 1011.6 | |
| 20260901060036 | 78 | 0.0 | 1.0 | 0.00 | 0.00 | 0.00 | 87 | 1011.7 | |
| 20260901054536 | 79 | 0.0 | 2.0 | 0.00 | 0.00 | 0.00 | 86 | 1011.8 | |
| 20260901053018 | 79 | 0.0 | 3.0 | 0.00 | 0.00 | 0.00 | 87 | 1012.0 | |
| 20260901051518 | 78 | 0.0 | 1.0 | 0.00 | 0.00 | 0.00 | 89 | 1012.2 | |
| 20260901050017 | 77 | 0.0 | 1.0 | 0.00 | 0.00 | 0.00 | 93 | 1012.3 | |
| 20260901044558 | 77 | 0.0 | 1.0 | 0.00 | 0.00 | 0.00 | 94 | 1012.4 | |
| 20260901043036 | 77 | 0.0 | 0.0 | 0.00 | 0.00 | 0.00 | 92 | 1012.5 | |
| 20260901041516 | 77 | 0.0 | 0.0 | 0.00 | 0.00 | 0.00 | 93 | 1012.5 | |
| 20260901040016 | 77 | 0.0 | 0.0 | 0.00 | 0.00 | 0.00 | 95 | 1012.6 | |
| 20260901034517 | 76 | 0.0 | 0.0 | 0.00 | 0.00 | 0.00 | 95 | 1012.5 | |
| 20260901033016 | 76 | 0.0 | 0.0 | 0.00 | 0.00 | 0.00 | 96 | 1012.5 | |
| 20260901031517 | 76 | 0.0 | 0.0 | 0.00 | 0.00 | 0.00 | 95 | 1012.8 | |
| 20260901030057 | 76 | 0.0 | 0.0 | 0.00 | 0.00 | 0.00 | 94 | 1012.8 | |
| 20260901024557 | 77 | 0.0 | 0.0 | 0.00 | 0.00 | 0.00 | 93 | 1012.7 | |
| 20260901023018 | 77 | 0.0 | 0.0 | 0.00 | 0.00 | 0.00 | 92 | 1012.6 | |
| 20260901021518 | 77 | 0.0 | 0.0 | 0.00 | 0.00 | 0.00 | 91 | 1012.5 | |
| 20260901020017 | 78 | 0.0 | 0.0 | 0.00 | 0.00 | 0.00 | 91 | 1012.6 | |
| 20260901014617 | 78 | 0.0 | 0.0 | 0.00 | 0.00 | 0.00 | 89 | 1012.4 | |
| 20260901013037 | 79 | 0.0 | 0.0 | 0.00 | 0.00 | 0.00 | 88 | 1012.4 | |
| 20260901011517 | 80 | 0.0 | 0.0 | 0.00 | 0.00 | 0.00 | 86 | 1012.3 | |
| 20260901010017 | 81 | 0.0 | 0.0 | 0.00 | 0.00 | 0.00 | 85 | 1012.0 | |
| 20260901004537 | 82 | 0.0 | 0.0 | 0.00 | 0.00 | 0.00 | 83 | 1011.8 | |
| 20260901003018 | 83 | 0.0 | 0.0 | 0.00 | 0.00 | 0.00 | 79 | 1011.6 | |
| 20260901001518 | 84 | 0.0 | 2.0 | 0.00 | 0.00 | 0.00 | 76 | 1011.4 | |
| 20260901000017 | 85 | 0.0 | 0.0 | 0.00 | 0.00 | 0.00 | 72 | 1011.4 | |
| 20260831234559 | 86 | 0.0 | 0.0 | 0.00 | 0.00 | 0.00 | 70 | 1011.2 | |
| 20260831233044 | 87 | 0.0 | 2.0 | 0.00 | 0.00 | 0.00 | 67 | 1011.1 | |
| 20260831231517 | 88 | 0.0 | 2.0 | 0.00 | 0.00 | 0.00 | 65 | 1011.2 | |
| 20260831230058 | 89 | 0.0 | 3.0 | 0.00 | 0.00 | 0.00 | 63 | 1011.3 | |
| 20260831224519 | 89 | 158 | 1.0 | 6.0 | 0.00 | 0.00 | 0.00 | 61 | 1011.4 |
| 20260831223017 | 90 | 0.0 | 3.0 | 0.00 | 0.00 | 0.00 | 60 | 1011.6 | |
| 20260831221537 | 90 | 0.0 | 6.0 | 0.00 | 0.00 | 0.00 | 60 | 1011.7 | |
| 20260831220017 | 90 | 0.0 | 5.0 | 0.00 | 0.00 | 0.00 | 59 | 1011.8 | |
| 20260831214519 | 91 | 0.0 | 2.0 | 0.00 | 0.00 | 0.00 | 57 | 1011.8 | |
| 20260831213017 | 91 | 0.0 | 2.0 | 0.00 | 0.00 | 0.00 | 56 | 1011.9 | |
| 20260831211519 | 92 | 0.0 | 1.0 | 0.00 | 0.00 | 0.00 | 57 | 1012.0 | |
| 20260831210057 | 92 | 0.0 | 3.0 | 0.00 | 0.00 | 0.00 | 54 | 1012.2 | |
| 20260831204517 | 92 | 158 | 1.0 | 8.0 | 0.00 | 0.00 | 0.00 | 56 | 1012.3 |
| 20260831203015 | 92 | 0.0 | 7.0 | 0.00 | 0.00 | 0.00 | 55 | 1012.3 | |
| 20260831201535 | 92 | 158 | 1.0 | 5.0 | 0.00 | 0.00 | 0.00 | 52 | 1012.5 |
| 20260831200015 | 93 | 158 | 1.0 | 7.0 | 0.00 | 0.00 | 0.00 | 51 | 1012.8 |
| 20260831194515 | 93 | 158 | 1.0 | 7.0 | 0.00 | 0.00 | 0.00 | 51 | 1013.0 |
| 20260831193017 | 93 | 0.0 | 6.0 | 0.00 | 0.00 | 0.00 | 50 | 1013.1 | |
| 20260831191515 | 93 | 158 | 1.0 | 7.0 | 0.00 | 0.00 | 0.00 | 51 | 1013.2 |
| 20260831190017 | 92 | 158 | 1.0 | 8.0 | 0.00 | 0.00 | 0.00 | 55 | 1013.4 |
| 20260831184537 | 92 | 0.0 | 11.0 | 0.00 | 0.00 | 0.00 | 56 | 1013.7 | |
| 20260831183037 | 91 | 158 | 1.0 | 11.0 | 0.00 | 0.00 | 0.00 | 54 | 1013.8 |
| 20260831181515 | 91 | 135 | 1.0 | 7.0 | 0.00 | 0.00 | 0.00 | 59 | 1013.8 |
| 20260831180015 | 91 | 135 | 1.0 | 7.0 | 0.00 | 0.00 | 0.00 | 61 | 1013.9 |
| 20260831174516 | 92 | 0.0 | 6.0 | 0.00 | 0.00 | 0.00 | 59 | 1014.0 | |
| 20260831173016 | 91 | 113 | 1.0 | 8.0 | 0.00 | 0.00 | 0.00 | 61 | 1014.1 |
| 20260831171556 | 91 | 0.0 | 5.0 | 0.00 | 0.00 | 0.00 | 63 | 1014.1 | |
| 20260831170037 | 91 | 135 | 1.0 | 10.0 | 0.00 | 0.00 | 0.00 | 60 | 1014.1 |
| 20260831164516 | 90 | 135 | 1.0 | 12.0 | 0.00 | 0.00 | 0.00 | 64 | 1014.3 |
| 20260831163017 | 89 | 0.0 | 6.0 | 0.00 | 0.00 | 0.00 | 68 | 1014.4 | |
| 20260831161516 | 89 | 0.0 | 3.0 | 0.00 | 0.00 | 0.00 | 65 | 1014.3 | |
| 20260831160037 | 88 | 158 | 1.0 | 10.0 | 0.00 | 0.00 | 0.00 | 67 | 1014.3 |
| 20260831154537 | 87 | 0.0 | 2.0 | 0.00 | 0.00 | 0.00 | 72 | 1014.2 | |
| 20260831153016 | 85 | 0.0 | 4.0 | 0.00 | 0.00 | 0.00 | 74 | 1014.2 | |
| 20260831151517 | 84 | 0.0 | 4.0 | 0.00 | 0.00 | 0.00 | 75 | 1014.3 | |
| 20260831150037 | 83 | 0.0 | 4.0 | 0.00 | 0.00 | 0.00 | 76 | 1014.3 | |
| 20260831144516 | 81 | 0.0 | 6.0 | 0.00 | 0.00 | 0.00 | 80 | 1014.1 | |
| 20260831143016 | 80 | 0.0 | 5.0 | 0.00 | 0.00 | 0.00 | 81 | 1014.0 | |
| 20260831141516 | 79 | 0.0 | 3.0 | 0.00 | 0.00 | 0.00 | 84 | 1014.0 | |
| 20260831140038 | 78 | 0.0 | 1.0 | 0.00 | 0.00 | 0.00 | 86 | 1014.0 | |
| 20260831134516 | 77 | 0.0 | 2.0 | 0.00 | 0.00 | 0.00 | 87 | 1014.0 | |
| 20260831133016 | 77 | 0.0 | 1.0 | 0.00 | 0.00 | 0.00 | 88 | 1013.9 | |
| 20260831131516 | 77 | 0.0 | 3.0 | 0.00 | 0.00 | 0.00 | 89 | 1013.9 | |
| 20260831130016 | 76 | 0.0 | 1.0 | 0.00 | 0.00 | 0.00 | 89 | 1013.8 | |
| 20260831124516 | 76 | 0.0 | 1.0 | 0.00 | 0.00 | 0.00 | 91 | 1013.6 | |
| 20260831123016 | 75 | 0.0 | 0.0 | 0.00 | 0.00 | 0.00 | 91 | 1013.8 | |
| 20260831121536 | 74 | 0.0 | 2.0 | 0.00 | 0.00 | 0.00 | 93 | 1013.5 | |
| 20260831120016 | 74 | 0.0 | 0.0 | 0.00 | 0.00 | 0.00 | 94 | 1013.6 | |
| 20260831114536 | 73 | 0.0 | 1.0 | 0.00 | 0.00 | 0.00 | 94 | 1013.5 | |
| 20260831113016 | 73 | 0.0 | 0.0 | 0.00 | 0.00 | 0.00 | 95 | 1013.5 | |
| 20260831111516 | 73 | 0.0 | 0.0 | 0.00 | 0.00 | 0.00 | 95 | 1013.4 | |
| 20260831110016 | 73 | 0.0 | 0.0 | 0.00 | 0.00 | 0.00 | 95 | 1013.1 | |
| 20260831104516 | 73 | 0.0 | 0.0 | 0.00 | 0.00 | 0.00 | 94 | 1013.0 | |
| 20260831103016 | 73 | 0.0 | 0.0 | 0.00 | 0.00 | 0.00 | 94 | 1012.8 | |
| 20260831101516 | 74 | 0.0 | 0.0 | 0.00 | 0.00 | 0.00 | 93 | 1012.8 | |
| 20260831100016 | 74 | 0.0 | 0.0 | 0.00 | 0.00 | 0.00 | 92 | 1012.7 | |
| 20260831094518 | 74 | 0.0 | 0.0 | 0.00 | 0.00 | 0.00 | 91 | 1012.6 | |
| 20260831093016 | 75 | 0.0 | 0.0 | 0.00 | 0.00 | 0.00 | 89 | 1012.7 | |
| 20260831091516 | 75 | 0.0 | 0.0 | 0.00 | 0.00 | 0.00 | 87 | 1012.6 | |
| 20260831090036 | 75 | 0.0 | 0.0 | 0.00 | 0.00 | 0.00 | 86 | 1012.6 |